SP4IM-13 Weather Reports


time (UTC)temp
C
wind
direction
speed
KPH
gust
KPH
rain 1hr
cm
rain 24hr
cm
rain mn
cm
humidity
%
barometer
mb
20260906005006 12 315 4.8 14.5 0.00 0.00 0.00 95 1009.0
20260905233011 12 315 4.8 14.5 0.00 0.00 0.00 95 1009.0
20260905231009 12 302 4.8 12.9 0.00 0.00 0.00 95 1008.0
20260905225005 12 315 4.8 11.3 0.00 0.00 0.00 94 1008.0
20260905221007 12 300 4.8 9.7 0.00 0.00 0.00 93 1008.0
20260905220007 12 292 4.8 9.7 0.00 0.00 0.00 93 1008.0
20260905215004 12 295 6.4 16.1 0.00 0.00 0.00 93 1008.0
20260905200003 12 281 4.8 12.9 0.00 0.00 0.00 93 1008.0
20260905195005 12 246 1.6 6.4 0.00 0.00 0.00 92 1009.0
20260905172004 14 222 3.2 8.0 0.00 0.00 0.00 91 1009.0
20260905153009 16 346 9.7 25.7 0.00 0.00 0.00 81 1008.0
20260905151005 16 16 3.2 6.4 0.00 0.00 0.00 81 1007.0
20260905143009 16 45 3.2 8.0 0.00 0.00 0.00 82 1007.0
20260905141005 17 62 4.8 14.5 0.00 0.00 0.00 76 1007.0
20260905131003 19 336 8.0 20.9 0.00 0.00 0.00 63 1006.0
20260905120007 18 343 6.4 19.3 0.00 0.00 0.00 71 1006.0
20260905115006 18 57 6.4 20.9 0.00 0.00 0.00 71 1006.0
20260905105003 19 345 8.0 24.1 0.00 0.00 0.00 66 1006.0
20260905095004 18 328 6.4 22.5 0.00 0.00 0.00 69 1006.0
20260905094003 18 305 8.0 22.5 0.00 0.00 0.00 70 1006.0
20260905091006 18 298 6.4 17.7 0.00 0.00 0.00 71 1005.0
20260905072006 17 16 4.8 12.9 0.00 0.00 0.00 73 1004.0
20260905035008 16 301 6.4 16.1 0.00 0.00 0.00 92 1000.0
20260905012007 18 302 6.4 17.7 0.00 0.00 0.00 84 999.0